| time (UTC) | temp F | wind direction | speed knots | gust knots | rain 1hr in | rain 24hr in | rain mn in | humidity % | barometer mb |
| 20260504081834 | 52 | 174 | 3.5 | 0.9 | 0.00 | 0.00 | 0.00 | ||
| 20260504080829 | 52 | 228 | 0.9 | 3.5 | 0.00 | 0.00 | 0.00 | ||
| 20260504050750 | 50 | 259 | 4.3 | 6.1 | 0.00 | 0.00 | 0.00 | ||
| 20260504050603 | 50 | 259 | 4.3 | 6.1 | 0.00 | 0.00 | 0.00 | ||
| 20260504044554 | 49 | 170 | 0.0 | 0.0 | 0.00 | 0.00 | 0.00 | ||
| 20260504043549 | 49 | 273 | 1.7 | 1.7 | 0.00 | 0.00 | 0.00 | ||
| 20260504042544 | 49 | 225 | 2.6 | 1.7 | 0.00 | 0.00 | 0.00 | ||
| 20260504041539 | 48 | 229 | 2.6 | 2.6 | 0.00 | 0.00 | 0.00 | ||
| 20260504040529 | 48 | 153 | 0.0 | 0.0 | 0.00 | 0.00 | 0.00 | ||
| 20260504035520 | 48 | 153 | 0.0 | 0.0 | 0.00 | 0.00 | 0.00 | ||
| 20260504034507 | 49 | 153 | 0.0 | 0.0 | 0.00 | 0.00 | 0.00 | ||
| 20260504033457 | 49 | 236 | 0.0 | 0.0 | 0.00 | 0.00 | 0.00 | ||
| 20260504032450 | 48 | 236 | 0.0 | 0.0 | 0.00 | 0.00 | 0.00 | ||
| 20260504031444 | 49 | 236 | 0.0 | 0.0 | 0.00 | 0.00 | 0.00 | ||
| 20260504030438 | 47 | 236 | 0.0 | 0.0 | 0.00 | 0.00 | 0.00 | ||
| 20260504025432 | 47 | 236 | 0.0 | 0.0 | 0.00 | 0.00 | 0.00 | ||
| 20260504024421 | 50 | 236 | 0.0 | 0.0 | 0.00 | 0.00 | 0.00 | ||
| 20260504023414 | 48 | 236 | 0.0 | 0.0 | 0.00 | 0.00 | 0.00 | ||
| 20260504022405 | 48 | 236 | 0.0 | 0.0 | 0.00 | 0.00 | 0.00 | ||
| 20260504021341 | 49 | 236 | 0.0 | 0.0 | 0.00 | 0.00 | 0.00 | ||
| 20260504020337 | 48 | 236 | 0.0 | 0.0 | 0.00 | 0.00 | 0.00 | ||
| 20260504015329 | 49 | 236 | 0.0 | 0.0 | 0.00 | 0.00 | 0.00 | ||
| 20260504014322 | 49 | 236 | 0.0 | 0.0 | 0.00 | 0.00 | 0.00 | ||
| 20260504011303 | 51 | 236 | 0.0 | 0.0 | 0.00 | 0.00 | 0.00 | ||
| 20260504010246 | 51 | 236 | 0.0 | 0.0 | 0.00 | 0.00 | 0.00 | ||
| 20260504005232 | 51 | 236 | 0.0 | 0.0 | 0.00 | 0.00 | 0.00 | ||
| 20260504004213 | 51 | 236 | 0.0 | 0.0 | 0.00 | 0.00 | 0.00 | ||
| 20260504003207 | 51 | 236 | 0.0 | 0.0 | 0.00 | 0.00 | 0.00 | ||
| 20260504002157 | 52 | 236 | 0.0 | 0.0 | 0.00 | 0.00 | 0.00 | ||
| 20260504001150 | 54 | 269 | 0.0 | 0.0 | 0.00 | 0.00 | 0.00 | ||
| 20260504000148 | 55 | 269 | 0.0 | 0.0 | 0.00 | 0.00 | 0.00 | ||
| 20260503235136 | 57 | 210 | 0.0 | 0.0 | 0.00 | 0.00 | 0.00 | ||
| 20260503234128 | 57 | 262 | 0.0 | 0.0 | 0.00 | 0.00 | 0.00 | ||
| 20260503233122 | 58 | 252 | 0.0 | 1.7 | 0.00 | 0.00 | 0.00 | ||
| 20260503232115 | 58 | 243 | 1.7 | 2.6 | 0.00 | 0.00 | 0.00 | ||
| 20260503231108 | 59 | 307 | 0.0 | 1.7 | 0.00 | 0.00 | 0.00 | ||
| 20260503230059 | 60 | 274 | 0.9 | 1.7 | 0.00 | 0.00 | 0.00 | ||
| 20260503225052 | 61 | 23 | 3.5 | 0.9 | 0.00 | 0.00 | 0.00 | ||
| 20260503224046 | 63 | 304 | 0.9 | 0.0 | 0.00 | 0.00 | 0.00 | ||
| 20260503223038 | 63 | 240 | 5.2 | 5.2 | 0.00 | 0.00 | 0.00 | ||
| 20260503222032 | 64 | 307 | 4.3 | 4.3 | 0.00 | 0.00 | 0.00 | ||
| 20260503221027 | 65 | 295 | 2.6 | 3.5 | 0.00 | 0.00 | 0.00 | ||
| 20260503220024 | 65 | 280 | 2.6 | 3.5 | 0.00 | 0.00 | 0.00 | ||
| 20260503214002 | 66 | 295 | 2.6 | 1.7 | 0.00 | 0.00 | 0.00 | ||
| 20260503213002 | 65 | 267 | 1.7 | 3.5 | 0.00 | 0.00 | 0.00 | ||
| 20260503211956 | 66 | 280 | 3.5 | 4.3 | 0.00 | 0.00 | 0.00 | ||
| 20260503210951 | 66 | 343 | 0.9 | 2.6 | 0.00 | 0.00 | 0.00 | ||
| 20260503205944 | 64 | 280 | 4.3 | 2.6 | 0.00 | 0.00 | 0.00 | ||
| 20260503204934 | 66 | 333 | 3.5 | 3.5 | 0.00 | 0.00 | 0.00 | ||
| 20260503203930 | 66 | 255 | 2.6 | 7.0 | 0.00 | 0.00 | 0.00 | ||
| 20260503202927 | 66 | 345 | 5.2 | 1.7 | 0.00 | 0.00 | 0.00 | ||
| 20260503201923 | 65 | 233 | 5.2 | 6.1 | 0.00 | 0.00 | 0.00 | ||
| 20260503200916 | 65 | 352 | 5.2 | 4.3 | 0.00 | 0.00 | 0.00 | ||
| 20260503195913 | 66 | 308 | 1.7 | 4.3 | 0.00 | 0.00 | 0.00 | ||
| 20260503194907 | 64 | 277 | 6.1 | 7.8 | 0.00 | 0.00 | 0.00 | ||
| 20260503193903 | 65 | 297 | 4.3 | 8.7 | 0.00 | 0.00 | 0.00 | ||
| 20260503192900 | 65 | 336 | 4.3 | 6.1 | 0.00 | 0.00 | 0.00 | ||
| 20260503191848 | 64 | 269 | 7.8 | 2.6 | 0.00 | 0.00 | 0.00 | ||
| 20260503190837 | 65 | 285 | 6.1 | 9.6 | 0.00 | 0.00 | 0.00 | ||
| 20260503185831 | 63 | 281 | 4.3 | 4.3 | 0.00 | 0.00 | 0.00 | ||
| 20260503184827 | 65 | 293 | 6.1 | 5.2 | 0.00 | 0.00 | 0.00 | ||
| 20260503183823 | 64 | 322 | 7.0 | 7.0 | 0.00 | 0.00 | 0.00 | ||
| 20260503182818 | 64 | 273 | 6.1 | 4.3 | 0.00 | 0.00 | 0.00 | ||
| 20260503181812 | 64 | 352 | 2.6 | 0.0 | 0.00 | 0.00 | 0.00 | ||
| 20260503180806 | 63 | 319 | 5.2 | 6.1 | 0.00 | 0.00 | 0.00 | ||
| 20260503175801 | 63 | 301 | 3.5 | 1.7 | 0.00 | 0.00 | 0.00 | ||
| 20260503174758 | 62 | 255 | 7.8 | 6.1 | 0.00 | 0.00 | 0.00 | ||
| 20260503173750 | 61 | 287 | 5.2 | 6.1 | 0.00 | 0.00 | 0.00 | ||
| 20260503172747 | 62 | 269 | 6.1 | 2.6 | 0.00 | 0.00 | 0.00 | ||
| 20260503171744 | 60 | 21 | 4.3 | 5.2 | 0.00 | 0.00 | 0.00 | ||
| 20260503170740 | 58 | 13 | 5.2 | 3.5 | 0.00 | 0.00 | 0.00 | ||
| 20260503150629 | 58 | 333 | 2.6 | 1.7 | 0.00 | 0.00 | 0.00 | ||
| 20260503130528 | 50 | 321 | 6.1 | 5.2 | 0.00 | 0.00 | 0.00 | ||
| 20260503110418 | 45 | 3 | 5.2 | 5.2 | 0.00 | 0.00 | 0.00 |